Weather History for LFMC - October, 2012

Change the Weather History Date:

Monday, October 1, 2012

  Actual Average (LFTH) Record (LFTH)
Temperature  
Mean Temperature 66 °F -  
Max Temperature 75 °F 68 °F 78 °F (1999)
Min Temperature 57 °F 55 °F 48 °F (2008)
Cooling Degree Days 1    
Growing Degree Days 16 (Base 50)    
Moisture  
Dew Point 58 °F    
Average Humidity 86    
Maximum Humidity 94    
Minimum Humidity 50    
Precipitation  
Precipitation 0.00 in - - ()
Sea Level Pressure  
Sea Level Pressure 30.02 in    
Wind  
Wind Speed 2 mph ()    
Max Wind Speed 13 mph    
Max Gust Speed -    
Visibility 6.0 miles    
Events Rain , Thunderstorm    
Averages and records for this station are not official NWS values.
T = Trace of Precipitation, MM = Missing Value Source: Averaged Metar Reports

Daily Weather History Graph

Daily Weather History Graph

Search for Another Location

Airport or City:

Trip Planner

Search our weather history database for the weather conditions in past years. The results will help you decide how hot, cold, wet, or windy it might be!

Date:

Astronomy

Oct. 01, 2012 Rise Set
Actual Time 7:32 AM CEST 7:15 PM CEST
Civil Twilight 7:03 AM CEST 7:43 PM CEST
Nautical Twilight 6:30 AM CEST 8:16 PM CEST
Astronomical Twilight 5:56 AM CEST 8:50 PM CEST
Moon 7:38 PM CEST (10/1) 8:49 AM CEST (10/1)
Length of Visible Light 12h 39m
Length of Day
11h 42m
Full, 98% of the Moon is Illuminated
Oct 1
Full
Oct 8
Last Quarter
Oct 15
New
Oct 22
First Quarter
Oct 29
Full

Hourly Weather History & Observations

Time (CEST) Temp. Dew Point Humidity Pressure Visibility Wind Dir Wind Speed Gust Speed Precip Events Conditions
12:00 AM 59.0 °F 57.2 °F 94% 30.04 in 6.2 mi Variable 2.3 mph - N/A   Unknown
12:30 AM 59.0 °F 57.2 °F 94% 30.04 in 6.2 mi Calm Calm - N/A   Unknown
1:00 AM 59.0 °F 57.2 °F 94% 30.04 in 6.2 mi NE 2.3 mph - N/A   Unknown
1:30 AM 59.0 °F 57.2 °F 94% 30.04 in 6.2 mi Calm Calm - N/A   Unknown
2:00 AM 59.0 °F 55.4 °F 88% 30.04 in 6.2 mi Calm Calm - N/A   Unknown
2:30 AM 57.2 °F 55.4 °F 94% 30.01 in 6.2 mi WSW 2.3 mph - N/A   Unknown
3:00 AM 57.2 °F 55.4 °F 94% 30.01 in 6.2 mi Calm Calm - N/A   Unknown
3:30 AM 57.2 °F 55.4 °F 94% 30.01 in 6.2 mi Calm Calm - N/A   Unknown
4:00 AM 57.2 °F 55.4 °F 94% 30.01 in 6.2 mi Variable 1.2 mph - N/A   Unknown
4:30 AM 57.2 °F 55.4 °F 94% 30.01 in 6.2 mi Calm Calm - N/A   Unknown
5:00 AM 57.2 °F 55.4 °F 94% 30.01 in 6.2 mi Calm Calm - N/A   Unknown
5:30 AM 57.2 °F 55.4 °F 94% 30.01 in 6.2 mi SE 2.3 mph - N/A   Unknown
6:00 AM 57.2 °F 55.4 °F 94% 30.01 in 6.2 mi Calm Calm - N/A   Unknown
6:30 AM 57.2 °F 55.4 °F 94% 30.01 in 6.2 mi Calm Calm - N/A   Unknown
7:00 AM 57.2 °F 55.4 °F 94% 29.98 in - Calm Calm - N/A   Clear
8:00 AM 57.2 °F 55.4 °F 94% 30.01 in 6.2 mi ENE 2.3 mph - N/A   Mostly Cloudy
9:00 AM 59.0 °F 57.2 °F 94% 30.01 in 6.2 mi Calm Calm - N/A Rain Light Rain
10:00 AM 60.8 °F 59.0 °F 94% 30.01 in 6.2 mi Variable 2.3 mph - N/A   Mostly Cloudy
11:00 AM 62.6 °F 59.0 °F 88% 30.04 in 6.2 mi Variable 1.2 mph - N/A   Mostly Cloudy
12:00 PM 64.4 °F 59.0 °F 83% 30.04 in 6.2 mi Variable 1.2 mph - N/A   Mostly Cloudy
1:00 PM 68.0 °F 59.0 °F 73% 30.01 in 6.2 mi Variable 2.3 mph - N/A   Mostly Cloudy
2:00 PM 75.2 °F 57.2 °F 53% 30.01 in 6.2 mi Variable 3.5 mph - N/A   Mostly Cloudy
3:00 PM 75.2 °F 55.4 °F 50% 30.01 in 6.2 mi Variable 4.6 mph - N/A   Mostly Cloudy
4:00 PM 71.6 °F 60.8 °F 69% 30.01 in 6.2 mi East 5.8 mph - N/A   Mostly Cloudy
4:20 PM 69.8 °F 62.6 °F 78% 30.01 in 6.2 mi Variable 9.2 mph - N/A Rain , Thunderstorm Thunderstorms and Rain
4:30 PM 64.4 °F 55.4 °F 73% 30.01 in 3.7 mi WSW 12.7 mph - N/A Rain , Thunderstorm Heavy Thunderstorms and Rain
4:48 PM 64.4 °F 59.0 °F 83% 30.01 in 5.6 mi WSW 3.5 mph - N/A   Mostly Cloudy
5:00 PM 68.0 °F 60.8 °F 78% 30.01 in 5.6 mi Variable 3.5 mph - N/A Rain Light Rain Showers
6:00 PM 69.8 °F 62.6 °F 78% 30.01 in 5.6 mi Variable 1.2 mph - N/A   Partly Cloudy
7:00 PM 69.8 °F 62.6 °F 78% 30.01 in 6.2 mi Calm Calm - N/A   Partly Cloudy
8:00 PM 64.4 °F 62.6 °F 94% 30.04 in 6.2 mi West 2.3 mph - N/A   Partly Cloudy
8:30 PM 64.4 °F 60.8 °F 88% 30.04 in 5.6 mi Variable 1.2 mph - N/A   Unknown
9:00 PM 62.6 °F 60.8 °F 94% 30.04 in 3.7 mi Variable 1.2 mph - N/A   Unknown
9:30 PM 62.6 °F 59.0 °F 88% 30.04 in 6.2 mi Variable 3.5 mph - N/A   Unknown
10:00 PM 60.8 °F 59.0 °F 94% 30.06 in 6.2 mi Variable 1.2 mph - N/A   Unknown
10:30 PM 60.8 °F 57.2 °F 88% 30.06 in 6.2 mi SW 3.5 mph - N/A   Unknown
11:00 PM 60.8 °F 55.4 °F 82% 30.06 in 6.2 mi SW 4.6 mph - N/A   Unknown
11:30 PM 59.0 °F 55.4 °F 88% 30.06 in 6.2 mi SSW 4.6 mph - N/A   Unknown